INMARSAT 5-F4

Last updated on Tue Sep 22 2026 00:03:14 GMT+0000 (Coordinated Universal Time)

1 42698U 17025A 26264.24766984 .00000000 00000+0 00000+0 0 9998 2 42698 0.0236 155.9532 0000525 26.4058 323.4289 1.00270622 34243
UTC large
Height (km)
Speed (km/s)
/
Latitude / Longitude
Inclination (degrees)
Orbital Period (minutes)
Azimuth
Elevation
Range (km)
Doppler Factor

Next 0 passes for location: London (51.5072 / 0.1276)

No passes found over London.
INMARSAT 5-F4